Location: Bittelbronn
(48.4454°N, 8.5870°E)
Time: 09:31:39
(UTC+00:00)

Meteor 2-5 Rocket - Pass Details

Date: 09 August 2024
Orbit: 833 x 910 km, 81.2° (Epoch: 16 September)

Event Time Altitude Azimuth Distance (km) Brightness Sun altitude
Rises 00:44:37 0° 360° (N) 3,446 8.1 -23.7°
Reaches altitude 10° 00:48:18 10° 24° (NNE) 2,521 7.3 -23.5°
Maximum altitude 00:51:23 15° 57° (ENE) 2,218 6.5 -23.4°
Drops below altitude 10° 00:54:28 10° 89° (E) 2,542 6.4 -23.2°
Sets 00:58:11 0° 113° (ESE) 3,493 6.9 -22.9°
